Regional Weather Roundup
Issued by NWS Upton, NY

Current Version | Previous Version | Text Only | Print | Product List | Glossary On
Versions: 1 2 3 4 5 6 7 8 9 10 11 12 13 14 15 16 17 18 19 20 21 22 23 24 25 26 27 28 29
000
ASUS41 KOKX 042102
RWROKX

REGIONAL WEATHER ROUNDUP
NATIONAL WEATHER SERVICE NEW YORK NY
500 PM EDT WED MAY 04 2016

NOTE: "FAIR" INDICATES FEW OR NO CLOUDS BELOW 12,000 FEET WITH NO
SIGNIFICANT WEATHER AND/OR OBSTRUCTIONS TO VISIBILITY.

NYZ071-072-176-178-NJZ106-104-042200-
NEW YORK CITY METRO AREA


CITY           SKY/WX    TMP DP  RH WIND       PRES   REMARKS
CENTRAL PARK   CLOUDY    50  45  83 VRB5      29.74F
LAGUARDIA APRT LGT RAIN  52  49  89 NE15      29.72F
KENNEDY INTL   CLOUDY    50  46  86 NE14      29.73F
NEWARK/LIBERTY LGT RAIN  51  45  79 NE9       29.73R
BRNX BOT. GARD   N/A     48  46  93 N8        29.73R
TETERBORO      LGT RAIN  50  45  83 NE6       29.71S
$$

NYZ177-179-078>081-042200-
LONG ISLAND NEW YORK

CITY           SKY/WX    TMP DP  RH WIND       PRES   REMARKS
FARMINGDALE    LGT RAIN  49  46  90 NE10      29.72S
ISLIP          TSTM      48  45  89 E15       29.71F FOG
SHIRLEY        RAIN      48  46  93 VRB6      29.75R FOG
RIVERHEAD        N/A     48  46  93 NE3       29.73S
WESTHAMPTON    RAIN      45  45 100 NE9G22    29.75R FOG
EAST HAMPTON   CLOUDY    48  43  83 NE9G22    29.72S
MONTAUK POINT    N/A     48  44  86 NE13G21   29.73F
$$

NYZ052-065-067-042200-
HUDSON VALLEY

CITY           SKY/WX    TMP DP  RH WIND       PRES   REMARKS
WHITE PLAINS   LGT RAIN  50  47  89 NE7       29.71F FOG
NEWBURGH       NOT AVBL
MONTGOMERY     LGT RAIN  50  48  93 NE8       29.74S FOG
POUGHKEEPSIE   CLOUDY    52  48  86 NE6       29.75F FOG
ALBANY         CLOUDY    50  46  86 E3        29.80R FOG
$$

NJZ001-105-106-008-010-013-015-019>022-104-042200-
NEW JERSEY

CITY           SKY/WX    TMP DP  RH WIND       PRES   REMARKS
NEWARK/LIBERTY LGT RAIN  51  45  79 NE9       29.73R
TETERBORO      LGT RAIN  50  45  83 NE6       29.71S
CALDWELL       CLOUDY    50  31  48 E7        29.73F
MORRISTOWN     CLOUDY    50  46  87 NE7G17    29.73F
SOMERVILLE     CLOUDY    53  45  74 NE12G17   29.70F
SUSSEX         CLOUDY    50  46  86 NE8       29.73S FOG
ANDOVER          N/A     50  45  83 SE5       29.72S
TRENTON        CLOUDY    51  47  86 NE9       29.70R
MILLVILLE      CLOUDY    52  47  83 NE15      29.67S
ATLANTIC CITY  CLOUDY    51  48  89 NE14G21   29.68S
WRIGHTSTOWN    NOT AVBL
TOMS RIVER     CLOUDY    48  45  87 NE15      29.72R
BELMAR         LGT RAIN  48  46  93 NE10G18   29.72R
$$

PAZ047>061-062-071-042200-
EASTERN PENNSYLVANIA

CITY           SKY/WX    TMP DP  RH WIND       PRES   REMARKS
PHILADELPHIA   CLOUDY    53  45  74 NE9       29.70S
ALLENTOWN      CLOUDY    53  47  79 E9        29.71R
SCRANTON       LGT RAIN  51  48  89 E9        29.69F FOG
$$

CTZ002-004>006-009-010-012-RIZ004-006-007-MAZ004-011-015-042200-
SOUTHERN NEW ENGLAND
 IN CT

CITY           SKY/WX    TMP DP  RH WIND       PRES   REMARKS
BRADLEY INTL   CLOUDY    50  40  68 NE10      29.78S
HARTFORD       CLOUDY    52  40  63 NE13      29.78R
DANBURY        CLOUDY    50  44  80 N7        29.75F
WTRBRY/OXFORD  CLOUDY    48  41  76 MISG      29.75F
BRIDGEPORT     LGT RAIN  51  47  86 NE13      29.73F
MERIDEN        LGT RAIN  52  42  69 NE8       29.76S
NEW HAVEN      LGT RAIN  51  44  77 N13       29.74S
CHESTER        CLOUDY    50  43  76 NE7G14    29.74S
GROTON         CLOUDY    50  48  93 NE16      29.74R
WILLIMANTIC    CLOUDY    50  40  68 NE18G24   29.77F

 IN RI

CITY           SKY/WX    TMP DP  RH WIND       PRES   REMARKS
PROVIDENCE     LGT RAIN  46  42  86 NE21G28   29.78F
BLOCK ISLAND   LGT RAIN  46  44  93 NE18G26     N/A  FOG
WESTERLY       LGT RAIN  49  41  74 NE13G21   29.75R

 IN MA

CITY           SKY/WX    TMP DP  RH WIND       PRES   REMARKS
BOSTON         CLOUDY    46  40  79 NE18      29.83F
WORCESTER      CLOUDY    44  40  85 NE13G18   29.78S
WESTFIELD      CLOUDY    48  43  82 N6        29.80R
PROVINCETOWN   LGT RAIN  44  42  93 NE14G22   29.81S
NANTUCKET      LGT RAIN  47  44  90 NE18      29.73F FOG
$$

ANZ330-335-338-340-345-350-353-355-042200-
COASTAL MARINE OBSERVATIONS


STATION/POSITION TIME  SKY/WX   TEMP    WIND        PRES    VSBY  WAVE
                                AIR SEA DIR/SP/G                  HT/PER
                 (UTC)          (F)     (DEG/KT/KT) (MB)    (MI)  (FT/S)
NY HARB ENTRANCE 1950            48 50   80/ 21/ 25 1005.7          7/ 6
20S FIRE ISLAND  1950            46 48   40/ 19/ 25 1005.3          7/ 6
GREAT SOUTH BAY  2000            49 55   20/ 14/ 19   N/A
23 SSW MONTAUK P 2050            46 46   60/ 23/ 29 1004.4          7/ 6
15 E BARNEGAT LI 2022               50                N/A           6/ 6
HUDSON CANYON    1950            48 48              1002.4          6/ 6
KINGS POINT      2000            49 54              1006.5
EXECUTION ROCKS  NOT AVBL
CENTRAL LI SOUND NOT AVBL
EASTERN LI SOUND 2000            50 48   50/ 14/ 21   N/A
ROBBINS REEF     2000            50      50/ 15/ 18 1005.9
$$


>>>>>>>>>>>>>>>>>>>>>>>>>>>> KEY <<<<<<<<<<<<<<<<<<<<<<<<<<<
>                                                          <
>     SKY/WX - SKY CONDITION/PRESENT WEATHER               <
>     TMP    - TEMPERATURE IN FAHRENHEIT                   <
>     DP     - DEWPOINT IN FAHRENHEIT                      <
>     RH     - RELATIVE HUMIDITY IN PERCENT                <
>     WIND   - DIRECTION AND SPEED IN MPH                  <
>     PRES   - MEAN SEA LEVEL PRESSURE IN INCHES OF HG     <
>     WCI    - WIND CHILL INDEX                            <
>     VSB    - VISIBILITY IN MILES                         <
>     HX     - HEAT INDEX                                  <
>     TC     - TEMPERATURE IN CELSIUS                      <
>     VRB    - VARIABLE WIND DIRECTION                     <
>                                                          <
>>>>>>>>>>>>>>>>>>>>>>>>>>>> KEY <<<<<<<<<<<<<<<<<<<<<<<<<<<






USA.gov is the U.S. government's official web portal to all federal, state and local government web resources and services.